Other Public Products
Issued by NWS Grand Forks, ND

Home | Current Version | Previous Version | Text Only | Print | Product List | Glossary Off
Versions: 1 2 3 4 5 6 7 8 9 10 11 12 13 14 15 16 17 18 19 20 21 22 23 24 25 26 27 28 29 30 31 32 33 34 35 36 37 38 39 40 41 42 43 44 45 46 47 48 49 50

000
FPUS83 KFGF 251531
OPUFGF
PRAIRIE TO PINES WEATHER ROUNDUP
NATIONAL WEATHER SERVICE EASTERN NORTH DAKOTA/GRAND FORKS ND
900 AM CST SUN FEB 25 2018

 **SATELLITE DATA USED TO AUGMENT SKY COVER AT AUTOMATED STATIONS**
 *****  WEATHER ACROSS EASTERN NORTH DAKOTA  *****

CITY           SKY/WX    TMP DP  RH WIND       PRES   REMARKS
GRAND FORKS    CLOUDY    13   7  77 W3        29.55R
GRND FORKS AFB CLOUDY    18  12  79 NW9       29.54R WCI   6
GRND FORKS NWS   N/A     10   7  88 W2        29.52R
BUXTON           N/A     17  17  98 W8          N/A  WCI   7
DEVILS LAKE    FLURRIES  18  14  84 W17       29.55R WCI   3
FARGO          CLOUDY    20  16  84 W10       29.60R WCI   9
WAHPETON ARPT  CLOUDY    19  14  79 W15       29.64R WCI   5
$$

 *****  WEATHER ACROSS CENTRAL AND WESTERN NORTH DAKOTA  *****

CITY           SKY/WX    TMP DP  RH WIND       PRES   REMARKS
JAMESTOWN      FAIR      21  16  81 W17       29.59R WCI   7
BISMARCK       FAIR      22  15  75 W18       29.67R WCI   7
MINOT          CLOUDY    22  14  71 SW13      29.58R WCI  10
MINOT AFB      CLOUDY    21  15  77 W16         N/A  WCI   7
GARRISON         N/A     20  15  81 W18       29.62R WCI   5
WILLISTON      FAIR      13   7  77 SW9       29.66R WCI   1
DICKINSON      FAIR      12   5  73 W12       29.63R WCI  -2
HETTINGER      FAIR      13   5  70 W21       29.69R WCI  -5
$$

 *****  OTHER OBSERVATIONS NORTHEAST NORTH DAKOTA  *****

CITY           SKY/WX    TMP DP  RH WIND       PRES   REMARKS
WALHALLA       FAIR      16  16 100 W10G18    29.51R WCI   3
LANGDON        NOT AVBL
CAVALIER       LGT SNOW  18  14  86 W13       29.51R WCI   4
GRAFTON        NOT AVBL
CANDO          FLURRIES  18  18 100 W21       29.55R WCI   1
FORT TOTTEN      N/A     19  15  83 W7        29.95  WCI  10
ROLLA          FLURRIES  19  19 100 NW14      29.51S WCI   6
RUGBY          NOT AVBL
 ***** THE ABOVE OBSERVATIONS ARE NON NWS ARE NOT QUALITY
        CONTROLLED AND MAY MIS-REPORT RAIN FOR SNOW...
$$

 *****  OTHER OBSERVATIONS SOUTHEAST NORTH DAKOTA *****

CITY           SKY/WX    TMP DP  RH WIND       PRES   REMARKS
COOPERSTOWN    FAIR      21  18  86 W20G28    29.56R WCI   6
VALLEY CITY    NOT AVBL
OAKES            N/A     23  19  86 W12G18    29.65R WCI  12
GWINNER          N/A     19  18  93 SW16      29.63R WCI   5
SHEYENNE NWR     N/A     24  23  96 W12       29.95S WCI  13
BUFFALO          N/A     24  20  84 NW20        N/A  WCI   9
WYNDMERE       NOT AVBL
 ***** THE ABOVE OBSERVATIONS ARE NON NWS ARE NOT QUALITY
       CONTROLLED AND MAY MIS-REPORT RAIN FOR SNOW...
$$

  *****  WEATHER ACROSS NORTHERN MINNESOTA  *****

CITY           SKY/WX    TMP DP  RH WIND       PRES   REMARKS
FLAG ISLAND    PTSUNNY   19  18  93 W15       29.42R WCI   5
WARROAD        LGT SNOW  18  14  86 W13       29.46R WCI   4
ROSEAU         FLURRIES  18  12  79 SW7       29.47S WCI   8
HALLOCK        FAIR      10   7  85 W7        29.50S WCI   0
THF RVR FALLS  CLOUDY    14  10  84 W12       29.51S WCI   0
HALSTAD        NOT AVBL
FOSSTON        FLURRIES  12   9  85 SW12      29.54R WCI  -2
BAUDETTE       LGT SNOW  21  17  84 W12       29.42R FOG     WCI   9
WASKISH        LGT SNOW  19  18  93 W15G23    29.46R WCI   5
CROOKSTON      FAIR       9   7  92 W8        29.56R WCI  -4
$$
  *****  WEATHER ACROSS CENTRAL AND WEST MINNESOTA  *****

CITY           SKY/WX    TMP DP  RH WIND       PRES   REMARKS
BEMIDJI        LGT SNOW  18  14  85 W10       29.48S WCI   6
PARK RAPIDS    FLURRIES  18  12  77 W17       29.51R WCI   3
WADENA         FLURRIES  12   9  85 W14       29.57R WCI  -3
DETROIT LAKES  FLURRIES  18  14  86 W8        29.58R WCI   7
MOORHEAD       CLOUDY    21  16  79 W8        29.61S WCI  12
FERGUS FALLS   CLOUDY    16  16 100 W9        29.64R WCI   4
ELBOW LAKE     CLOUDY    16  13  89 SW14      29.64R WCI   2
MORRIS MN      CLOUDY    18  12  79 W12       29.66R WCI   5
STAPLES        CLOUDY    16  10  79 W12       29.57R WCI   3
WHEATON        FAIR      21  18  86 W15G22    29.68S WCI   8
$$
  *****  WEATHER ELSEWHERE ACROSS MINNESOTA  *****

CITY           SKY/WX    TMP DP  RH WIND       PRES   REMARKS
DULUTH         CLOUDY    23  18  81 W23G33    29.41R WCI   7
INTRNTL FALLS  LGT SNOW  22  19  89 W12G20    29.38R FOG     WCI  10
ELY            CLOUDY    21  18  86 W17G26    29.32R FOG     WCI   7
CLOQUET        CLOUDY    23  18  80 W15G26    29.46R WCI  10
BRAINERD       CLOUDY    20  13  74 W13       29.56R HAZE    WCI   7
HIBBING        CLOUDY    20  17  88 W15G23    29.40R WCI   6
ALEXANDRIA     CLOUDY    14   9  80 W12       29.61R WCI   0
SAINT CLOUD    PTSUNNY   14   8  77 W15       29.63R WCI  -1
MINNEAPOLIS    FAIR      16  10  77 W12       29.68S WCI   3
$$

  *****  WEATHER ACROSS SOUTH DAKOTA  *****

CITY           SKY/WX    TMP DP  RH WIND       PRES   REMARKS
SIOUX FALLS    FAIR      20  12  71 W12       29.81R WCI   8
BROOKINGS      CLOUDY    18  14  86 W15       29.75R WCI   3
WATERTOWN      PTSUNNY   18  16  92 W17       29.70R WCI   3
HURON          FAIR      20  13  74 W12       29.79R WCI   8
SISSETON         N/A     21  16  81 W20       29.65R WCI   6
ABERDEEN       FAIR      17  13  84 SW13      29.71R WCI   4
MITCHELL       FAIR      20  11  68 W8        29.83R WCI  10
PIERRE         FAIR      19  13  77 W10       29.79R WCI   7
MOBRIDGE       FAIR      17  11  77 CALM      29.70R
RAPID CITY     FAIR      16   5  62 W7        29.76R WCI   6
$$

  *****  SOME WEATHER IN NEARBY STATES *****

CITY           SKY/WX    TMP DP  RH WIND       PRES   REMARKS
GLASGOW MT     FAIR       5   2  87 E5        29.62S WCI  -4
GREAT FALLS MT CLOUDY    25  15  66 SW32G41   29.59S HAZE    WCI   8
CHEYENNE WY    FAIR      21   6  52 W16       29.84R WCI   7
SCOTTSBLUFF NE FAIR      27  13  55 W12       29.86R WCI  17
OMAHA NE       PTSUNNY   28  18  66 SW5       29.94S WCI  23
DES MOINES IA  FAIR      30  21  69 W13       29.91R WCI  20
DAVENPORT IA   FAIR      32  22  66 W21       29.93R WCI  20
CHICAGO IL     PTSUNNY   35  25  66 W18G32    29.83R WCI  24
EAU CLAIRE WI  CLOUDY    21  17  84 W14G25    29.64R WCI   8
LA CROSSE WI   FAIR      24  17  74 SW14G21   29.76R WCI  12
$$

  *****  SOME NATIONAL WEATHER *****

CITY           SKY/WX    TMP DP  RH WIND       PRES   REMARKS
LA GUARDIA NY  LGT RAIN  40  38  93 NE16      30.02F FOG
RALEIGH NC     FAIR      72  61  68 W16G28    30.05S
ATLANTA GA     LGT RAIN  61  60  97 N8        30.15R FOG
NEW ORLEANS LA RAIN      64  63  96 N15G23    30.12R FOG
OKLAHOMA CITY  FAIR      37  35  92 SE6       30.06R
ALBUQUERQUE NM FAIR      31  11  43 SW12      30.08R WCI  22
SALT LAKE CITY MOCLDY    27  13  55 SW5       30.19R WCI  22
LOS ANGELES CA FAIR      47  32  56 CALM      30.22R
BOISE ID       CLOUDY    25  18  74 SE8       30.14S WCI  16
SEATTLE WA     CLOUDY    40  40 100 S20G25    29.83F
$$

*** WEATHER ACROSS MANITOBA...SASKATCHEWAN AND ONTARIO ***
                ***ONTARIO***

CITY           SKY/WX    TMP DP  RH WIND       PRES   REMARKS
GERALDTON      LGT SNOW  21  19  93 NE7       29.08F VSB 1   WCI  13
THUNDER BAY    FLURRIES  27  25  93 W9        29.17  WCI  17
SIOUX LOOKOUT  LGT SNOW  21  18  86 N9        29.28S WCI  11
TORONTO        PTSUNNY   45  43  93 SW13      29.60R
BIG TROUT LK   CLOUDY    19   9  63 N5        29.40F WCI  13
PICKLE LAKE    LGT SNOW  19  16  86 NE5       29.28F WCI  13
DRYDEN         FLURRIES  23  19  86 N7        29.29S WCI  15
KENORA         LGT SNOW  19  18  93 NW8       29.37R WCI   9
$$
                *** MANITOBA***

CITY           SKY/WX    TMP DP  RH WIND       PRES   REMARKS
BRANDON        FLURRIES  14  12  92 W10       29.51R WCI   1
DAUPHIN        FLURRIES  19  16  86 W14       29.50R WCI   6
ISLAND LAKE    LGT SNOW  16  14  93 VRB2      29.42S
PILOT MOUND      N/A     18  14  86 W12G20      N/A  WCI   5
THE PAS        FLURRIES  14  10  85 NW6       29.48R WCI   5
THOMPSON       LGT SNOW   7   1  78 N9        29.51R DRFTSNOWWCI  -7
WINNIPEG       PTSUNNY    9   5  85 W9        29.48R WCI  -5
LYNN LAKE      CLEAR     -8 -11  84 NE3       29.52S
CHURCHILL      PTSUNNY   -8 -13  77 W6        29.65R WCI -21
GILLAM         CLOUDY     3  -2  78 NE8       29.56R WCI -10
$$
                ***SASKATCHEWAN***

CITY           SKY/WX    TMP DP  RH WIND       PRES   REMARKS
ESTEVAN        FLURRIES  19  14  79 W12       29.57S WCI   7
KINDERSLEY     PTCLDY     1  -2  85 S8        29.41F WCI -12
LLOYDMINSTER   MOCLDY     9   5  85 SW14      29.32S WCI  -8
PRINCE ALBERT  MOCLDY     1  -2  85 E2        29.50F
REGINA         PTCLDY     7   3  85 SW7       29.53F WCI  -5
YORKTON        FLURRIES  16  10  79 NW12G17   29.54R WC



USA.gov is the U.S. government's official web portal to all federal, state and local government web resources and services.